Temperature
6 5 5 6 6 7 6 6 6 6 7 7 6 6 7 7 7 6 7 7 8 8 8 8 8 8 8 8 8 8 8 9 9 9 9 9 10 10 10 10 10 10 11 11
5 6 6 6 6 6 6 6 6 6 7 7 6 6 6 6 6 7 7 7 8 8 8 8 8 8 8 8 8 8 8 8 8 8 8 8 9 9 9 10 10 10 10 10
6 6 7 7 6 6 6 6 6 6 6 6 6 6 7 7 6 7 7 7 8 8 8 7 7 7 7 7 7 7 7 8 8 8 8 8 8 8 9 9 9 9 10 10
5 6 6 6 6 6 6 6 6 6 5 5 6 6 6 6 6 6 6 7 7 7 7 7 7 7 7 7 7 7 7 7 7 7 7 7 7 8 8 8 8 9 9 9
5 6 6 6 6 6 6 6 6 6 5 5 5 5 6 6 6 6 6 7 7 7 7 7 7 7 7 7 7 7 7 7 7 7 7 7 7 7 7 7 8 8 8 9
5 6 6 6 6 6 6 6 5 4 4 6 6 5 6 5 6 6 6 7 7 7 7 7 7 6 6 7 6 6 6 6 6 6 6 6 6 6 7 7 7 8 8 8
5 6 6 6 6 6 6 5 5 5 5 6 5 5 5 6 6 6 6 6 7 7 7 7 6 6 6 6 6 6 6 6 6 6 6 6 6 6 6 6 7 7 7 8
5 5 6 6 6 6 5 5 5 6 5 5 5 4 5 6 6 6 6 7 7 7 7 6 6 6 6 6 6 6 5 5 5 6 6 6 6 6 6 6 6 6 7 7
4 5 5 6 6 6 5 4 5 4 4 4 5 5 5 5 5 5 6 6 6 6 6 6 6 6 6 5 5 5 5 5 5 5 5 5 5 5 6 6 6 6 6 6
5 4 5 5 6 6 5 4 3 4 5 6 6 5 5 6 6 5 4 5 6 6 6 6 6 5 5 5 5 5 5 5 5 5 5 5 5 5 5 5 6 6 6 6
4 4 4 5 5 5 5 4 4 3 4 4 5 6 6 5 5 5 4 6 6 6 6 6 5 5 5 5 5 5 4 5 5 5 4 4 5 5 5 5 5 5 5 6
3 3 3 4 5 5 5 4 3 4 4 2 3 5 6 5 4 4 5 6 6 6 6 5 5 5 5 4 4 4 4 4 4 4 4 4 4 4 5 5 5 5 5 5
4 3 3 5 4 4 4 4 3 3 2 2 3 5 5 4 4 5 5 6 6 6 6 5 5 5 4 4 4 4 4 4 4 4 4 4 4 4 4 4 4 5 5 5
4 3 3 5 5 4 4 4 3 3 2 2 3 4 5 5 4 4 5 6 6 6 5 5 5 4 4 4 4 4 3 3 3 3 4 4 4 4 4 4 4 4 4 5
3 3 2 3 3 3 3 4 3 2 3 3 4 3 5 5 4 5 5 5 5 5 5 5 5 4 4 4 4 3 3 3 3 3 3 3 3 3 4 4 4 4 4 4
2 2 2 2 3 3 3 3 3 3 3 3 3 4 5 5 5 4 5 5 5 5 5 5 5 4 4 4 3 3 3 3 3 3 3 3 3 3 3 3 3 3 3 3
1 2 2 2 2 3 3 4 3 3 3 3 3 5 4 4 4 4 5 5 5 6 6 5 5 4 4 3 3 3 3 3 3 2 2 2 2 2 3 3 3 3 3 3
1 1 2 2 2 3 5 5 4 3 3 3 4 4 3 4 5 6 6 6 6 6 6 5 5 4 4 3 3 3 3 2 2 2 2 2 2 2 2 2 2 2 2 2
1 2 2 2 1 2 4 4 3 3 4 4 3 4 4 4 4 5 7 6 6 6 6 5 5 4 4 3 3 3 2 2 2 1 1 1 1 1 1 2 2 2 2 2
0 1 1 1 2 3 5 5 4 4 4 5 3 3 3 3 3 4 6 6 6 6 5 5 4 4 3 3 3 2 2 2 1 1 1 1 1 1 1 1 1 1 1 1
1 1 1 1 2 3 4 4 4 5 5 6 5 5 4 3 4 6 6 6 5 5 5 4 4 4 3 3 2 2 2 2 1 1 1 1 1 1 0 0 0 0 1 1
1 1 1 1 2 3 4 3 3 4 6 6 6 6 5 5 5 5 5 5 5 5 4 4 4 3 3 2 2 2 2 2 1 1 1 1 0 0 0 0 0 0 0 0
1 2 1 2 3 4 4 5 6 6 5 5 5 5 5 5 5 5 5 4 4 4 4 4 3 3 3 2 2 2 2 1 1 1 1 0 0 0 0 -0 -0 -0 -0 -0
0 0 0 0 1 3 4 5 6 6 5 5 5 5 4 4 4 4 4 4 4 4 4 3 3 3 2 2 2 2 1 1 1 1 1 0 0 0 -0 -0 -0 -0 -1 -1
1 -1 -1 0 1 2 4 6 6 6 5 5 5 5 4 4 4 4 4 4 4 4 3 3 3 3 2 2 2 1 1 1 1 0 0 0 -0 -0 -0 -0 -1 -1 -1 -1
-0 1 1 3 3 2 4 6 6 5 5 5 4 4 4 4 3 3 3 3 3 3 3 3 3 2 2 2 1 1 1 1 0 0 0 -0 -0 -0 -1 -1 -1 -1 -1 -2
Wind_Speed
5 6 3 0 2 3 4 2 1 3 2 1 4 7 8 4 2 3 3 3 3 4 4 4 4 4 5 6 7 7 7 7 5 4 4 3 3 3 3 3 4 4 4 3
5 3 1 1 3 4 3 2 1 3 2 1 4 7 6 3 3 4 4 4 4 4 4 5 5 5 5 6 7 7 7 7 6 4 4 3 3 3 3 3 3 3 3 3
3 1 1 3 3 3 1 2 2 2 4 3 3 6 4 2 2 2 3 4 4 4 4 5 5 6 6 7 8 8 8 7 6 5 4 3 3 3 3 3 3 3 3 3
2 2 2 3 1 2 1 2 2 0 2 3 2 3 6 3 4 4 4 4 5 5 4 4 5 6 6 7 7 7 7 7 6 5 3 3 3 3 4 3 3 3 4 4
2 2 2 1 0 2 2 1 1 1 1 2 0 2 8 2 4 6 6 5 5 5 4 4 4 5 5 6 6 7 7 7 6 5 4 3 3 3 3 3 3 3 3 3
1 2 1 0 1 1 1 3 4 4 3 2 3 4 7 5 6 5 5 5 5 4 4 4 4 4 4 5 6 6 7 7 6 5 4 3 4 4 4 4 4 3 3 2
5 3 2 1 2 3 4 4 3 4 3 4 1 3 8 6 6 5 6 5 4 3 3 3 4 4 5 6 6 6 7 8 7 6 5 5 4 4 4 4 4 4 3 3
2 3 3 2 1 1 1 4 4 3 3 5 2 6 7 4 4 4 4 4 3 3 3 3 3 3 5 6 6 6 7 7 7 7 6 5 5 3 3 4 4 4 4 3
1 3 3 1 0 3 3 2 3 4 0 3 6 7 8 2 2 2 2 2 3 4 3 3 3 4 4 5 6 6 6 7 7 7 6 6 5 4 4 5 4 3 3 2
2 2 4 3 1 2 2 5 4 3 1 4 6 5 5 5 5 4 4 4 4 4 3 3 3 4 4 4 5 5 5 6 6 6 6 5 5 5 4 3 3 3 3 2
2 1 4 2 2 4 3 3 3 2 3 3 4 7 5 6 6 6 6 5 5 4 4 4 4 4 4 4 4 5 6 6 6 6 6 6 5 5 4 3 3 3 3 2
2 3 3 5 3 1 3 5 6 3 4 3 3 8 5 5 6 5 6 5 5 5 4 3 3 3 4 4 4 5 5 6 6 6 5 5 5 4 4 4 4 3 2 2
3 3 2 5 2 0 2 3 4 4 3 4 4 8 3 2 3 4 5 6 5 4 4 3 3 4 4 4 4 4 5 5 5 5 5 5 5 5 4 4 4 3 2 2
3 3 5 7 5 3 4 5 5 6 5 6 10 12 10 8 7 7 6 6 6 5 5 4 4 4 4 4 4 4 5 4 5 5 5 5 5 5 5 4 4 4 3 2
3 3 5 8 8 6 8 10 9 11 11 11 10 11 16 9 8 8 7 6 5 5 5 5 5 5 4 4 4 4 4 4 4 4 5 5 5 5 4 4 4 4 4 3
2 2 2 5 5 7 11 14 14 14 12 14 14 16 13 8 6 7 7 6 7 7 7 6 6 5 5 5 4 4 4 4 4 4 4 5 5 5 5 4 4 4 4 4
2 2 1 5 5 6 10 11 13 8 8 9 14 13 6 5 7 8 7 7 8 8 7 7 7 6 6 5 4 4 4 3 3 3 4 4 4 5 5 5 5 4 4 3
6 4 2 4 5 7 7 2 6 8 9 12 11 9 7 8 7 7 7 8 9 8 7 7 6 6 5 4 4 3 3 2 3 3 4 4 4 4 4 4 4 4 3 3
6 6 3 2 4 9 10 4 5 6 7 9 13 12 8 5 4 6 6 7 8 8 7 6 6 5 4 4 4 2 2 2 3 4 4 4 3 4 4 4 4 3 3 2
3 4 4 3 4 7 7 1 3 2 6 5 7 8 5 1 3 6 4 4 6 6 5 4 4 3 4 4 3 3 3 3 4 5 4 4 3 3 3 4 3 3 2 2
4 4 7 7 7 10 8 3 4 3 6 2 4 5 5 6 7 5 4 4 5 5 5 4 4 4 5 4 4 4 4 5 5 4 4 3 3 3 3 3 3 3 2 2
9 7 8 7 8 11 5 7 7 8 3 2 4 4 6 8 7 7 6 6 5 4 4 4 4 5 4 4 4 5 6 6 4 3 3 3 3 3 2 2 2 2 2 2
9 10 7 11 11 6 5 8 6 3 4 5 5 6 6 7 8 7 7 6 6 6 5 4 4 5 4 4 5 7 6 4 3 3 3 3 3 2 2 2 2 2 1 1
6 5 5 7 11 10 9 9 8 8 8 8 7 7 7 8 9 9 8 7 6 6 5 4 4 5 5 5 6 7 5 3 3 4 3 3 2 2 2 2 1 1 1 2
8 6 6 9 10 8 9 10 11 9 8 8 8 8 9 9 10 9 8 8 7 6 5 4 5 6 7 5 6 6 4 4 4 4 3 3 2 2 2 2 2 2 3 3
8 10 9 12 10 8 8 6 6 7 9 9 9 9 8 8 10 9 9 7 6 6 5 5 6 6 6 5 6 5 4 5 4 4 4 3 2 2 2 2 3 3 3 4
Wind_Direction
24 59 62 21 118 140 138 136 253 274 294 326 262 271 282 277 222 239 255 264 272 280 291 306 320 332 338 337 336 331 332 333 335 334 328 320 311 303 296 287 284 279 276 259
47 33 306 108 94 95 109 106 301 305 332 306 294 285 280 246 215 216 227 243 255 280 310 320 328 338 341 338 333 329 332 331 329 325 310 295 299 293 283 284 289 283 284 272
97 281 341 80 69 71 28 172 209 266 345 7 341 312 290 276 248 250 242 243 254 258 279 307 322 326 334 335 331 330 328 327 328 328 321 319 322 311 303 298 288 295 292 281
53 347 77 80 48 107 276 236 192 151 32 320 35 299 281 273 282 264 262 260 263 270 276 291 308 320 326 324 327 329 330 334 335 336 328 319 312 298 292 297 295 305 300 287
3 8 60 78 284 144 206 46 108 108 118 326 340 214 282 294 265 259 261 263 267 269 267 277 290 300 316 326 333 334 336 338 339 341 334 316 306 297 302 311 307 302 296 291
336 338 12 184 28 117 123 59 63 54 65 299 228 193 276 241 229 249 257 265 270 270 273 284 297 312 324 333 337 340 342 341 344 344 340 321 307 310 315 318 310 306 303 292
359 353 356 48 56 37 66 79 33 3 358 262 221 217 253 251 236 231 246 263 272 267 271 289 305 318 324 330 334 341 342 340 343 347 341 330 310 303 297 295 296 298 299 296
28 325 335 7 118 133 87 119 143 204 246 289 290 242 257 260 264 252 244 252 269 270 270 276 287 302 312 320 329 337 337 333 340 344 342 336 322 309 298 293 285 281 276 273
130 281 318 351 56 135 121 127 146 136 215 284 274 279 297 245 275 262 250 259 270 268 267 276 300 312 314 318 321 324 327 329 336 340 338 338 330 314 300 291 286 283 278 272
156 270 306 317 58 44 131 141 105 129 189 279 290 278 263 266 257 260 256 254 262 270 281 286 296 305 308 310 315 322 322 323 325 332 333 333 325 320 315 311 292 287 284 277
135 171 313 343 202 188 132 129 131 136 174 198 277 275 233 233 233 236 247 251 259 267 269 274 289 299 304 317 327 329 329 331 333 333 329 329 325 325 326 326 320 301 295 297
146 130 268 263 255 202 190 184 158 171 228 204 230 271 274 241 241 236 253 263 264 261 261 263 276 295 306 314 324 329 329 331 330 330 328 324 324 332 339 337 328 323 322 318
149 125 340 339 349 15 228 203 178 154 152 191 212 263 302 319 293 264 254 263 266 263 259 264 276 287 292 298 311 320 322 323 326 333 333 332 332 334 333 331 331 330 330 334
133 172 197 220 230 202 233 219 186 169 200 229 232 257 282 290 291 287 275 267 264 258 251 256 269 278 284 290 299 308 312 318 328 338 342 341 331 323 323 332 340 342 346 358
125 229 243 258 265 253 247 242 216 212 215 224 246 250 266 268 262 264 261 262 263 263 258 254 260 269 278 285 291 298 307 319 330 340 343 337 333 334 339 344 348 356 5 0
127 230 283 284 267 258 263 251 234 231 231 239 258 269 266 264 254 259 259 254 255 256 251 251 256 263 265 266 273 285 297 308 321 329 331 332 339 347 346 348 354 3 6 2
178 180 279 281 310 314 273 242 216 210 210 204 233 247 263 267 258 253 251 248 247 250 247 244 247 247 249 250 249 260 274 294 313 320 326 332 339 344 344 348 358 357 355 4
168 162 207 292 341 259 249 224 191 212 235 219 236 254 254 249 259 257 245 240 249 247 244 245 242 244 245 239 244 253 267 287 303 312 320 326 333 336 339 343 349 346 347 359
181 170 196 245 280 280 288 255 184 201 267 227 232 251 261 276 304 283 247 229 236 237 238 237 232 234 234 234 232 233 262 276 286 294 303 311 319 325 332 336 336 334 342 353
152 170 184 198 243 255 257 205 164 116 283 250 211 237 248 168 284 276 274 250 247 246 243 237 228 223 229 235 212 217 247 258 267 275 283 294 304 309 315 316 321 330 336 338
157 188 208 217 239 264 256 205 132 186 255 262 207 227 212 212 233 270 289 274 254 249 246 231 217 222 229 222 203 226 242 248 256 267 280 293 301 300 302 314 321 327 333 348
186 187 200 194 217 252 219 151 188 221 261 267 249 241 237 246 265 276 277 273 265 260 253 228 222 237 234 213 208 232 246 251 253 258 269 280 290 294 305 313 315 323 331 340
206 201 197 202 219 243 195 206 225 221 252 259 254 258 255 262 266 269 267 263 260 251 246 233 226 241 241 223 214 233 249 247 241 246 259 272 282 287 292 280 290 317 322 318
242 205 211 246 256 253 252 253 258 248 248 255 256 263 262 262 266 268 266 262 257 251 242 234 226 238 248 239 233 238 247 234 229 240 254 263 266 279 283 265 258 269 273 281
226 190 217 250 266 283 266 245 246 253 253 256 260 255 252 256 263 261 260 257 252 250 242 227 226 238 247 244 244 246 236 220 228 240 246 250 248 253 262 263 249 243 242 244
207 202 211 243 236 229 254 250 241 250 259 259 262 269 260 248 257 259 257 253 247 245 238 235 236 242 250 246 249 248 232 214 218 236 241 237 235 244 249 266 290 278 270 276
Height
1492 1496 1500 1500 1499 1500 1503 1505 1507 1505 1502 1502 1501 1498 1495 1493 1494 1493 1493 1493 1493 1493 1493 1492 1491 1489 1486 1483 1480 1478 1475 1473 1471 1470 1469 1468 1468 1468 1468 1469 1470 1471 1472 1474
1498 1501 1500 1499 1499 1501 1503 1506 1507 1505 1502 1502 1502 1499 1493 1492 1492 1491 1492 1491 1491 1491 1490 1489 1488 1486 1484 1481 1478 1475 1473 1470 1468 1467 1466 1465 1464 1464 1464 1465 1466 1466 1468 1469
1501 1502 1499 1500 1501 1503 1504 1506 1506 1506 1505 1503 1503 1498 1493 1490 1490 1490 1490 1489 1489 1489 1488 1487 1485 1484 1481 1478 1476 1473 1470 1468 1466 1464 1463 1462 1461 1461 1461 1460 1461 1462 1463 1464
1502 1501 1501 1501 1503 1503 1505 1504 1504 1505 1508 1510 1507 1507 1494 1490 1490 1488 1487 1487 1486 1487 1486 1485 1483 1481 1479 1477 1474 1471 1468 1466 1463 1461 1460 1459 1458 1457 1457 1457 1457 1458 1459 1460
1504 1502 1502 1503 1503 1503 1505 1504 1505 1507 1509 1512 1509 1510 1498 1491 1489 1486 1484 1484 1484 1484 1484 1483 1482 1480 1478 1475 1472 1469 1467 1464 1461 1459 1458 1457 1456 1455 1454 1454 1454 1454 1455 1456
1505 1503 1503 1503 1503 1503 1504 1506 1508 1511 1513 1512 1507 1509 1499 1492 1485 1483 1482 1482 1482 1482 1482 1481 1480 1478 1476 1473 1471 1468 1465 1462 1459 1457 1456 1454 1454 1453 1452 1451 1450 1450 1451 1451
1507 1505 1503 1503 1504 1505 1506 1511 1516 1514 1518 1511 1507 1508 1497 1483 1481 1480 1480 1480 1480 1480 1480 1478 1477 1475 1473 1471 1469 1466 1463 1460 1458 1455 1454 1453 1451 1450 1449 1449 1447 1447 1446 1446
1512 1511 1506 1504 1505 1506 1508 1510 1517 1516 1519 1515 1509 1506 1489 1481 1479 1478 1479 1479 1479 1478 1478 1477 1476 1474 1472 1470 1467 1465 1462 1459 1457 1454 1452 1451 1450 1448 1447 1446 1445 1444 1443 1443
1513 1512 1507 1505 1504 1505 1508 1512 1513 1520 1521 1520 1508 1499 1486 1478 1477 1477 1477 1477 1477 1476 1476 1475 1474 1473 1471 1468 1466 1464 1461 1458 1456 1453 1451 1449 1448 1446 1445 1443 1442 1441 1440 1440
1511 1514 1509 1507 1505 1506 1507 1511 1517 1518 1516 1512 1503 1499 1490 1478 1476 1476 1476 1475 1475 1475 1474 1474 1473 1471 1469 1467 1465 1463 1460 1457 1455 1452 1450 1448 1446 1444 1442 1440 1439 1438 1437 1437
1511 1515 1512 1509 1507 1507 1509 1512 1514 1519 1518 1516 1510 1494 1478 1476 1474 1474 1473 1473 1473 1473 1472 1472 1471 1469 1468 1466 1464 1461 1458 1456 1453 1450 1448 1446 1444 1442 1440 1438 1436 1435 1434 1434
1512 1516 1517 1510 1506 1506 1506 1508 1512 1515 1516 1520 1517 1496 1473 1472 1471 1471 1471 1471 1471 1471 1471 1470 1469 1467 1465 1463 1461 1459 1457 1454 1452 1449 1447 1444 1442 1440 1438 1436 1434 1433 1432 1431
1511 1515 1517 1510 1510 1508 1507 1506 1508 1512 1516 1520 1515 1491 1472 1471 1470 1470 1469 1469 1468 1468 1468 1467 1466 1464 1463 1461 1459 1457 1455 1452 1450 1447 1445 1442 1440 1438 1436 1434 1433 1431 1430 1429
1509 1514 1516 1509 1504 1505 1505 1504 1506 1509 1513 1511 1502 1485 1473 1471 1470 1468 1467 1466 1466 1465 1465 1464 1463 1462 1460 1458 1456 1455 1453 1451 1448 1446 1443 1441 1439 1436 1434 1433 1431 1429 1428 1427
1508 1513 1511 1507 1504 1503 1501 1499 1500 1502 1499 1499 1486 1483 1469 1468 1468 1466 1465 1463 1463 1462 1461 1460 1460 1459 1458 1456 1454 1452 1450 1448 1446 1444 1442 1440 1437 1435 1433 1431 1429 1427 1426 1425
1508 1511 1509 1506 1501 1500 1497 1490 1491 1491 1490 1487 1482 1475 1463 1464 1464 1462 1461 1460 1459 1458 1457 1457 1457 1456 1454 1453 1452 1450 1448 1446 1444 1442 1440 1438 1435 1433 1431 1429 1427 1425 1424 1423
1510 1511 1510 1507 1502 1496 1489 1476 1478 1479 1476 1477 1475 1466 1461 1462 1460 1459 1457 1456 1455 1454 1454 1454 1453 1452 1452 1450 1449 1448 1446 1444 1442 1440 1437 1435 1433 1431 1428 1427 1425 1424 1422 1421
1507 1509 1510 1508 1505 1497 1473 1467 1468 1470 1467 1467 1463 1459 1458 1457 1456 1455 1454 1453 1451 1451 1451 1450 1450 1449 1448 1447 1446 1445 1443 1441 1439 1437 1435 1433 1431 1429 1427 1425 1423 1422 1421 1419
1501 1505 1508 1508 1507 1491 1471 1465 1466 1468 1463 1457 1458 1456 1455 1454 1453 1450 1449 1449 1448 1448 1448 1447 1447 1446 1445 1444 1443 1442 1440 1438 1437 1435 1433 1432 1430 1427 1425 1423 1422 1420 1419 1417
1501 1502 1506 1507 1503 1491 1466 1463 1461 1465 1462 1452 1452 1452 1453 1453 1455 1449 1446 1445 1445 1445 1445 1444 1444 1443 1442 1441 1440 1438 1437 1435 1434 1432 1431 1430 1428 1426 1424 1422 1420 1419 1417 1416
1501 1503 1503 1502 1498 1481 1463 1461 1462 1468 1458 1451 1450 1449 1450 1450 1449 1446 1444 1443 1442 1441 1441 1441 1440 1439 1438 1437 1436 1435 1434 1432 1431 1430 1428 1427 1426 1424 1422 1420 1419 1417 1416 1415
1492 1495 1495 1494 1493 1477 1457 1459 1460 1455 1450 1449 1448 1447 1447 1445 1444 1442 1441 1440 1439 1438 1437 1436 1435 1435 1434 1433 1432 1431 1430 1429 1428 1427 1425 1424 1423 1422 1420 1419 1417 1416 1414 1413
1482 1478 1477 1475 1466 1454 1452 1450 1449 1448 1447 1446 1445 1444 1444 1441 1440 1438 1437 1436 1435 1434 1433 1432 1431 1431 1430 1429 1428 1427 1427 1426 1425 1423 1422 1421 1420 1419 1418 1416 1415 1414 1413 1411
1472 1469 1470 1467 1454 1449 1448 1446 1445 1445 1444 1442 1441 1440 1439 1437 1435 1434 1432 1431 1430 1429 1429 1428 1427 1426 1426 1425 1424 1424 1423 1422 1421 1420 1419 1419 1418 1417 1416 1414 1413 1412 1411 1409
1463 1464 1463 1458 1449 1445 1441 1440 1440 1439 1439 1438 1436 1435 1434 1432 1430 1429 1427 1426 1425 1425 1424 1423 1423 1422 1422 1421 1421 1420 1419 1418 1417 1417 1416 1415 1415 1414 1413 1412 1411 1409 1409 1408
1452 1453 1454 1445 1440 1440 1436 1436 1435 1434 1433 1432 1431 1429 1428 1427 1425 1423 1422 1421 1420 1420 1419 1419 1418 1418 1418 1417 1416 1416 1415 1414 1414 1413 1412 1412 1411 1410 1410 1409 1408 1407 1406 1405